This demonstration page uses our WeatherBlox Daily Observations layout. Learn more.

Left ArrowRight Arrow

Hourly Observations for May 30, 2022

Temp ( °F °C ) Dew Point ( °F °C ) Humidity (%) Winds ( mph kmh ) Pressure ( in mb ) Visibility ( mi km ) Precip ( " mm )
12:15 am 00:15 undefined 70 20.9 60 15.3 70 70 S 6 9 29.93 1014 10 16 0.00 0.00
12:35 am 00:35 undefined 69 20.7 59 15.2 71 71 S 8 13 29.93 1014 10 16 0.00 0.00
12:55 am 00:55 undefined 69 20.6 59 15.2 71 71 S 9 15 29.92 1013 10 16 0.00 0.00
1:15 am 01:15 undefined 69 20.5 59 15.1 71 71 S 9 15 29.93 1014 10 16 0.00 0.00
1:35 am 01:35 undefined 69 20.3 59 15.1 72 72 Calm 29.94 1014 10 16 0.00 0.00
1:55 am 01:55 undefined 68 20.1 59 15.1 73 73 Calm 29.94 1014 10 16 0.00 0.00
2:15 am 02:15 undefined 67 19.7 59 15.1 75 75 S 8 13 29.94 1014 10 16 0.00 0.00
2:35 am 02:35 undefined 68 20 59 15 73 73 S 9 15 29.94 1014 10 16 0.00 0.00
2:55 am 02:55 undefined 68 19.9 59 15 74 74 S 7 11 29.94 1014 10 16 0.00 0.00
3:15 am 03:15 undefined 67 19.6 59 15 75 75 S 3 6 29.94 1014 10 16 0.00 0.00
3:35 am 03:35 undefined 67 19.5 59 15 75 75 S 9 15 29.94 1014 10 16 0.00 0.00
3:55 am 03:55 undefined 67 19.3 59 15 76 76 S 9 15 29.94 1014 10 16 0.00 0.00
4:15 am 04:15 undefined 67 19.5 59 15 75 75 S 10 17 29.94 1014 10 16 0.00 0.00
4:35 am 04:35 undefined 67 19.4 59 14.9 75 75 S 12 19 29.94 1014 10 16 0.00 0.00
4:55 am 04:55 undefined 66 19.1 59 15 77 77 S 8 13 29.95 1014 10 16 0.00 0.00
5:15 am 05:15 undefined 66 19 59 14.9 77 77 S 9 15 29.95 1014 10 16 0.00 0.00
5:35 am 05:35 undefined 66 18.7 59 14.8 78 78 S 5 7 29.95 1014 10 16 0.00 0.00
5:55 am 05:55 undefined 66 18.9 59 14.8 77 77 S 10 17 29.95 1014 10 16 0.00 0.00
6:15 am 06:15 undefined 65 18.5 59 14.8 79 79 S 8 13 29.96 1015 10 16 0.00 0.00
6:35 am 06:35 undefined 65 18.5 59 14.8 79 79 S 8 13 29.96 1015 10 16 0.00 0.00
6:55 am 06:55 undefined 65 18.6 59 15 80 80 S 7 11 29.96 1015 10 16 0.00 0.00
7:15 am 07:15 undefined 66 19 59 15 78 78 S 7 11 29.96 1015 10 16 0.00 0.00
7:35 am 07:35 undefined 67 19.6 59 15.2 76 76 S 10 17 29.97 1015 10 16 0.00 0.00
7:55 am 07:55 undefined 69 20.4 59 15.2 72 72 S 9 15 29.97 1015 10 16 0.00 0.00
8:15 am 08:15 undefined 70 21.3 59 15.1 68 68 S 12 19 29.96 1015 10 16 0.00 0.00
8:35 am 08:35 undefined 72 22 59 15.2 65 65 SSW 10 17 29.96 1015 10 16 0.00 0.00
8:55 am 08:55 undefined 73 22.7 59 15 62 62 S 13 20 29.97 1015 10 16 0.00 0.00
9:15 am 09:15 undefined 74 23.5 59 15.1 59 59 S 12 19 29.96 1015 10 16 0.00 0.00
9:35 am 09:35 undefined 75 24 60 15.3 58 58 S 13 20 29.96 1015 10 16 0.00 0.00
9:55 am 09:55 undefined 76 24.4 59 15.1 56 56 S 14 22 29.96 1015 10 16 0.00 0.00
10:15 am 10:15 undefined 77 25 60 15.5 56 56 S 14 22 29.96 1015 10 16 0.00 0.00
10:35 am 10:35 undefined 78 25.4 60 15.8 55 55 SSW 14 22 29.96 1015 10 16 0.00 0.00
10:55 am 10:55 undefined 79 26.1 60 15.7 53 53 SSW 16 26 29.97 1015 10 16 0.00 0.00
11:15 am 11:15 undefined 80 26.4 60 15.8 52 52 S 15 24 29.96 1014 10 16 0.00 0.00
11:35 am 11:35 undefined 80 26.8 61 15.9 51 51 S 13 20 29.95 1014 10 16 0.00 0.00
11:55 am 11:55 undefined 81 27.3 60 15.4 48 48 S 13 20 29.94 1014 10 16 0.00 0.00
12:15 pm 12:15 undefined 81 27.4 60 15.4 48 48 S 13 20 29.94 1014 10 16 0.00 0.00
12:35 pm 12:35 undefined 83 28.1 60 15.8 47 47 S 18 30 29.93 1014 10 16 0.00 0.00
12:55 pm 12:55 undefined 82 28 60 15.7 47 47 S 21 33 29.93 1014 10 16 0.00 0.00
1:15 pm 13:15 undefined 83 28.2 61 15.9 47 47 SSW 17 28 29.93 1014 10 16 0.00 0.00
1:35 pm 13:35 undefined 83 28.6 62 16.4 48 48 S 17 28 29.93 1013 10 16 0.00 0.00
1:55 pm 13:55 undefined 84 28.8 61 16.2 46 46 S 16 26 29.93 1013 10 16 0.00 0.00
2:15 pm 14:15 undefined 84 29 61 16.3 46 46 SSW 16 26 29.92 1013 10 16 0.00 0.00
2:35 pm 14:35 undefined 85 29.4 62 16.5 46 46 SSW 20 31 29.92 1013 10 16 0.00 0.00
2:55 pm 14:55 undefined 85 29.5 62 16.5 45 45 S 14 22 29.91 1013 10 16 0.00 0.00
3:15 pm 15:15 undefined 85 29.7 62 16.4 45 45 S 14 22 29.91 1013 10 16 0.00 0.00
3:35 pm 15:35 undefined 86 30.2 61 16.1 43 43 S 17 28 29.90 1013 10 16 0.00 0.00
3:55 pm 15:55 undefined 87 30.4 61 16.2 42 42 S 15 24 29.90 1013 10 16 0.00 0.00
4:15 pm 16:15 undefined 86 30.2 61 16.2 43 43 S 16 26 29.90 1013 10 16 0.00 0.00
4:35 pm 16:35 undefined 87 30.8 62 16.6 42 42 S 20 31 29.89 1012 10 16 0.00 0.00
4:55 pm 16:55 undefined 86 30.2 63 17.3 46 46 S 13 20 29.89 1012 10 16 0.00 0.00
5:15 pm 17:15 undefined 88 30.9 62 16.7 42 42 S 14 22 29.89 1012 10 16 0.00 0.00
5:35 pm 17:35 undefined 86 30.1 62 16.8 45 45 SSE 16 26 29.89 1012 10 16 0.00 0.00
5:55 pm 17:55 undefined 85 29.7 62 16.9 46 46 SSW 14 22 29.90 1012 10 16 0.00 0.00
6:15 pm 18:15 undefined 84 28.9 62 16.6 47 47 S 15 24 29.90 1012 10 16 0.00 0.00
6:35 pm 18:35 undefined 85 29.2 63 17.2 48 48 S 17 28 29.89 1012 10 16 0.00 0.00
6:55 pm 18:55 undefined 84 29.1 63 17.2 49 49 S 15 24 29.89 1012 10 16 0.00 0.00
7:15 pm 19:15 undefined 83 28.4 64 17.5 52 52 S 15 24 29.89 1012 10 16 0.00 0.00
7:35 pm 19:35 undefined 83 28.3 64 17.8 53 53 S 8 13 29.89 1012 10 16 0.00 0.00
7:55 pm 19:55 undefined 82 28 64 17.5 53 53 SSW 14 22 29.89 1012 10 16 0.00 0.00
8:15 pm 20:15 undefined 82 27.5 63 17.3 54 54 S 15 24 29.89 1012 10 16 0.00 0.00
8:35 pm 20:35 undefined 81 27 64 17.7 57 57 S 9 15 29.89 1012 10 16 0.00 0.00
8:55 pm 20:55 undefined 80 26.6 64 17.8 59 59 S 13 20 29.89 1012 10 16 0.00 0.00
9:15 pm 21:15 undefined 79 26.1 64 18 61 61 S 10 17 29.91 1013 10 16 0.00 0.00
9:35 pm 21:35 undefined 78 25.5 64 18 63 63 Calm 29.91 1013 10 16 0.00 0.00
9:55 pm 21:55 undefined 78 25.3 64 18 64 64 S 10 17 29.92 1013 10 16 0.00 0.00
10:15 pm 22:15 undefined 76 24.7 65 18.1 67 67 Calm 29.92 1013 10 16 0.00 0.00
10:35 pm 22:35 undefined 76 24.6 65 18.1 67 67 S 8 13 29.93 1014 10 16 0.00 0.00
10:55 pm 22:55 undefined 76 24.5 64 18 67 67 S 8 13 29.93 1014 10 16 0.00 0.00
11:15 pm 23:15 undefined 75 23.9 64 18 70 70 S 7 11 29.93 1014 10 16 0.00 0.00
11:35 pm 23:35 undefined 75 23.8 64 18 70 70 S 9 15 29.94 1014 10 16 0.00 0.00
11:55 pm 23:55 undefined 75 23.7 64 17.6 69 69 S 12 19 29.94 1014 10 16 0.00 0.00

Powered by AerisWeather